SCOUT B DEB, 2498

Orbit data source: Space-Track

SCOUT B DEB, 2498 is space debris in LEO originally from a launch on Fri, 10 Jun 1966 UTC launched from the Wallops Island (WLPIS). Debris objects in space refer to the collection of defunct objects orbiting the Earth. Examples of debris include non-operational satellites, rocket bodies, and fragments generated from explosions, collisions, or faulty payload assembly.

Loading next visibility...
Identifier
2498, 1966-052C
Orbit
LEO
Country
Flag of USUS
Related business
Manufacturer
Unknown
Mission
Spacecraft
Bus & Motor
Unknown
Mass
Unknown
Launch date (UTC)
1966-06-10 (59 years ago)
Launch vehicle
Unknown
Launch site
Wallops Island (WLPIS)
Object type
Payload
Rocket body
Debris
Shape & HBR
Unknown shape, 0.1 m
Radar Cross Section
Small (<0.1 m²)

Expand to show TLE details & history
Last TLE update: 1 day ago

TLE from 1 day ago
0 SCOUT B DEB
1 02498U 66052C   25293.71294159  .00000278  00000-0  28571-3 0  9994
2 02498  40.6279  77.2824 2068101  12.9035 351.7229 10.56255215451541
Epoch: 2025-10-20T17:06Z
TLE epoch observation values (Epoch: 2025-10-20T17:06:38.153Z)
Latitude
0.00005°
Longitude
151.21217°
Altitude
611.348 km
Speed
8.286 km/s
True Right ascension
05h 09m 07s
True Declination
0° 00' 00"
Sunlit
Object was in full shadow at epoch
Visualization orbit readout
Latitude
Unknown
Longitude
Unknown
Altitude
Unknown
Speed
Unknown
Apparent Right ascension
Unknown
Apparent Declination
Unknown
Sunlit
N/A
Visualization observer readout
Local Sidereal Time
13:14:07
Azimuth
Unknown
Elevation
Unknown
Doppler factor
Unknown
Orbital elements
Apogee altitude
4,213.385 km
Perigee altitude
583.263 km
Semi-major axis
8,776.461 km
Eccentricity
0.20681
Inclination
40.6279°
RAAN
77.2824°
Arg. of periapsis
12.9035°
True anomaly
347.16526°
Mean anomaly
351.7229°
Eccentric anomaly
349.57975°
Mean motion
2.63976 °/min
Orbital period
136.38 mins
BSTAR
0.00028571
Loading maneuver chart data...
Computing Atmospheric mass density...
Loading historical data...
Loading historical data...
Loading historical data...
Loading historical data...
Loading historical data...
Loading historical data...
Loading historical data...
Other satellites on launch #52 in the year 1966 (1966-06-10 UTC)

Documentation

Showing up to 5 results
|